Observations for Trim Market St
| Time | AQI | Temp °C | Hum % | Pres Pa | CO μg/m³ | H₂S μg/m³ | NO μg/m³ | NO₂ μg/m³ | O₃ μg/m³ | SO₂ μg/m³ | PM1 μg/m³ | PM2.5 μg/m³ | PM10 μg/m³ |
|---|---|---|---|---|---|---|---|---|---|---|---|---|---|
| Tuesday 14 July 2026 | |||||||||||||
| 22:38 | 1 | 19.6 | 58 | 57,946 | 0 | 0 | 0 | 8.62 | 22.88 | 0 | 3.56 | 5.61 | 10.31 |
| 22:37 | 1 | 19.6 | 58 | 57,952 | 0 | 0 | 0 | 9.02 | 22.99 | 0 | 4.99 | 8.62 | 11.7 |
| 22:32 | 1 | 19.6 | 58 | 57,956 | 0 | 0 | 0 | 10.36 | 22.81 | 0 | 4.99 | 8.14 | 11.02 |
| 22:31 | 1 | 19.7 | 58 | 57,958 | 0 | 0 | 0 | 12.05 | 21.65 | 0 | 4.99 | 8.65 | 12.42 |
| 22:29 | 1 | 19.7 | 58 | 57,958 | 0 | 0 | 0 | 15.26 | 17.29 | 0 | 4.99 | 7.65 | 10.32 |
| 22:27 | 1 | 19.7 | 58 | 57,962 | 0 | 0 | 0 | 16.27 | 16.08 | 0 | 4.28 | 7.66 | 11.02 |
| 22:17 | 1 | 19.9 | 57 | 57,958 | 0 | 0 | 0 | 8.84 | 19.21 | 0 | 6.41 | 9.24 | 14.59 |
| 22:16 | 1 | 19.9 | 57 | 57,956 | 0.06 | 1.1 | 0 | 11.64 | 27.9 | 0 | 4.28 | 7.22 | 12.47 |
| 22:15 | 1 | 19.9 | 56 | 57,954 | 0 | 0.68 | 0 | 12.97 | 24.16 | 0 | 6.41 | 10.76 | 16.01 |
| 22:14 | 1 | 20 | 56 | 57,950 | 0.03 | 0.55 | 0 | 9.15 | 21.99 | 0 | 4.28 | 7.74 | 10.36 |
| 22:13 | 1 | 20 | 56 | 57,946 | 0.18 | 3.58 | 0.06 | 16.66 | 26.78 | 0 | 5.7 | 10.27 | 13.9 |
| 22:12 | 1 | 20 | 56 | 57,942 | 0 | 0 | 0 | 10.07 | 22.63 | 0 | 5.7 | 9.27 | 13.91 |
| 22:11 | 1 | 20 | 56 | 57,936 | 0 | 1.16 | 0 | 12.78 | 25.69 | 0 | 5.7 | 8.26 | 11.78 |
| 22:10 | 1 | 20.1 | 56 | 57,928 | 0 | 0.81 | 0 | 11.97 | 25.83 | 0 | 4.28 | 9.28 | 12.5 |
| 22:09 | 1 | 20.1 | 56 | 57,921 | 0 | 0 | 0 | 11.48 | 26.4 | 0 | 5.7 | 8.78 | 11.79 |
| 22:08 | 1 | 20.1 | 56 | 57,911 | 0 | 0 | 0 | 8.89 | 25.39 | 0 | 4.99 | 8.79 | 12.51 |
| 22:07 | 1 | 20.1 | 56 | 57,899 | 0 | 0 | 0 | 10.2 | 27.2 | 0 | 4.99 | 8.79 | 12.51 |
| 22:06 | 1 | 20.2 | 56 | 57,883 | 0 | 0 | 0 | 10.19 | 26.28 | 0 | 4.99 | 8.29 | 11.8 |
| 22:05 | 1 | 20.2 | 56 | 57,864 | 0 | 0 | 0 | 10.1 | 24.6 | 0 | 5.7 | 8.3 | 13.23 |
| 22:04 | 1 | 20.2 | 56 | 57,843 | 0 | 0 | 0 | 11.5 | 24.88 | 0 | 4.28 | 9.82 | 14.66 |